Location: Unspecified
(48.2082°N, 0.0000°E)
Time: 04:37:33
(UTC+00:00)

A-11 Canister half - Pass Details

Date: 22 August 2020
Orbit: 1514 x 1686 km, 47.2° (Epoch: 21 September)

Event Time Altitude Azimuth Distance (km) Brightness Sun altitude
Rises 20:27:45 0° 290° (WNW) 4,784 13.2 -13.8°
Reaches altitude 10° 20:30:58 10° 284° (WNW) 3,821 12.2 -14.3°
Maximum altitude 20:40:01 45° 216° (SW) 2,127 9.7 -15.5°
Enters shadow 20:47:18 17° 154° (SSE) 3,355 10.2 -16.4°
